Showing default

RESURS O1, 23342

Orbit data source: Space-Track

RESURS O1, 23342 is a payload satellite owned by Priroda (CIS) in SSO that was launched on Fri, 04 Nov 1994 UTC via a ZENIT-2 launch vehicle from the Tyuratam Missile And Space Complex (TTMTR). Payload-class satellites include a variety of spacecraft equipped with specific instruments for various scientific and technological missions. These include communications satellites like Starlink; space stations such as the ISS; scientific satellites like the Hubble; Earth observation satellites from companies like Planet Labs, Umbra, and HawkEye 360; GPS; miniature CubeSats for education and research; and military/defense satellites.

Loading next visibility...
Identifier
23342, 1994-074A
Orbit
SSO
Last TLE update
13 hours ago
Origin
Manufacturer
VNIIEM
Mission
Civil Imaging
Bus & Motor
RESURS-O, Unknown motor
Mass
1,900 kg wet, 1,900 kg dry
Launch date (UTC)
1994-11-04 (31 years ago)
Launch vehicle
ZENIT-2
Launch site
Tyuratam Missile And Space Complex (TTMTR)
Object type
Payload
Rocket body
Debris
Shape & HBR
Cyl + 2 Pan, 11.6 m
Radar Cross Section
11.656 m², Large (>1 m²)

Expand to show TLE details & history

TLE from 13 hours ago
0 RESURS O1
1 23342U 94074A   25181.55699756  .00000650  00000-0  83496-4 0  9992
2 23342  97.6894 207.9424 0001947 109.4287 250.7138 14.84367344651753
Epoch: 2025-06-30T13:22Z
TLE epoch observation values (Epoch: 2025-06-30T13:22:04.589Z)
Latitude
-0.00005°
Longitude
88.55819°
Altitude
619.056 km
Speed
7.549 km/s
True Right ascension
13h 51m 46s
True Declination
0° 00' 00"
Sunlit
Object was in daylight at epoch
Visualization orbit readout
Latitude
-62.73145°
Longitude
104.16786°
Altitude
640.985 km
Speed
7.536 km/s
Apparent Right ascension
23h 40m 38s
Apparent Declination
-78° 19' 60"
Sunlit
Object is in full shadow
Visualization observer readout
Local Sidereal Time
13:38:32
Azimuth
171.138° S
Elevation
-49.768°
Doppler factor
1
Orbital elements
Apogee altitude
613.959 km
Perigee altitude
611.237 km
Semi-major axis
6,990.735 km
Eccentricity
0.00019
Inclination
97.6894°
RAAN
207.9424°
Arg. of periapsis
109.4287°
True anomaly
Unknown
Mean anomaly
250.7138°
Eccentric anomaly
Unknown
Mean motion
3.71329 °/min
Orbital period
96.95 mins
BSTAR
0.000083496
Loading maneuver chart data...
Loading SW <> Apogee altitude chart data...

RESURS O1 Visibility forecast

Observer location: undefined°, undefined°

Span
Click to sort rows by Start time (UTC) header in descending order
Start Az.
Max El. time (UTC)
Max El. Az.
Max El.
End time (UTC)
End Az.
7 mins2025-07-01 02:25:28.102Z200.035° SSW2025-07-01 02:29:28.102Z272.498° WNW27.786°2025-07-01 02:32:28.102Z323.599° NNW
6 mins2025-07-01 14:13:28.102Z36.113° NE2025-07-01 14:16:28.102Z117.635° SE33.778°2025-07-01 14:19:28.102Z168.263° S
6 mins2025-07-02 01:06:28.102Z121.974° SE2025-07-02 01:09:28.102Z59.751° ENE26.356°2025-07-02 01:12:28.102Z11.783° NNE
|